Location: Ailingen
(47.6833°N, 9.5000°E)
Time: 05:41:29
(UTC+00:00)

Cosmos 1763 Rocket - Pass Details

Date: 18 November 2025
Orbit: 728 x 774 km, 74.0° (Epoch: 04 December)

Event Time Altitude Azimuth Distance (km) Brightness Sun altitude
Rises 16:45:55 0° 337° (NNW) 3,240 6.8 -10.7°
Reaches altitude 10° 16:48:19 10° 337° (NNW) 2,303 6.1 -11.1°
Maximum altitude 16:53:33 86° 248° (WSW) 761 3.5 -12.0°
Drops below altitude 10° 16:58:40 10° 161° (SSE) 2,256 5.9 -12.8°
Sets 17:01:00 0° 161° (SSE) 3,168 6.7 -13.2°
